Daily weather history


Statistical History for Wednesday, February 20, 2013

Tampa Knight Airport, FL


  Actual Average (KTPA) Record (KTPA)
Temperature
Mean Temperature 64 °F  
Max Temperature 73 °F 87 °F (1961)
Min Temperature 55 °F 35 °F (1960)
Degree Days
Heating Degree Days 3  
Month to date heating degree days 83  
Since 1 July heating degree days 448  
Cooling Degree Days 2  
Month to date cooling degree days 40  
Year to date cooling degree days 90  
Growing Degree Days 17 (Base - )  
Moisture
Dew Point   
Average Humidity    
Maximum Humidity    
Minimum Humidity    
Precipitation
Precipitation 0.09 in 3.90 in (1902)
Month to date precipitation 2.05  
Year to date precipitation 4.28  
Wind
Wind Speed   
Max Wind Speed   
Max Gust Speed   
Visibility   
Events   

Key: T is trace of precipitation, MM is missing value
Source: NWS Daily Summary
Time(EST)TemperatureDew PointHumidity Sea Level Pressure Visibility Wind DirectionWind SpeedGust SpeedPrecipitationEventsConditions
12:15 AM 60.8 °F 59.0 °F 94% 30.11 in 10.0 miles Calm Calm - N/A   Clear
12:35 AM 60.8 °F 59.0 °F 94% 30.10 in 10.0 miles SSW 3.5 mph - N/A   Clear
12:55 AM 60.8 °F 59.0 °F 94% 30.10 in 10.0 miles SSW 3.5 mph - N/A   Clear
1:15 AM 60.8 °F 59.0 °F 94% 30.11 in 10.0 miles Calm Calm - N/A   Clear
1:35 AM 60.8 °F 59.0 °F 94% 30.11 in 7.0 miles Calm Calm - N/A   Clear
1:55 AM 59.0 °F 59.0 °F 100% 30.10 in 5.0 miles Calm Calm - N/A   Clear
2:15 AM 60.8 °F 59.0 °F 94% 30.10 in 4.0 miles Calm Calm - N/A   Clear
2:35 AM 59.0 °F 59.0 °F 100% 30.09 in 3.0 miles Calm Calm - N/A   Mist
2:55 AM 60.8 °F 59.0 °F 94% 30.09 in 0.8 miles Calm Calm - N/A   Mist
3:15 AM 60.8 °F 59.0 °F 94% 30.08 in 5.0 miles Calm Calm - N/A   Clear
3:35 AM 60.8 °F 59.0 °F 94% 30.09 in 5.0 miles Calm Calm - N/A   Scattered Clouds
3:55 AM 62.6 °F 60.8 °F 94% 30.09 in 10.0 miles Calm Calm - N/A   Mostly Cloudy
4:15 AM 60.8 °F 59.0 °F 94% 30.08 in 7.0 miles Calm Calm - N/A   Scattered Clouds
4:35 AM 60.8 °F 59.0 °F 94% 30.09 in 7.0 miles Calm Calm - N/A   Mostly Cloudy
4:55 AM 60.8 °F 60.8 °F 100% 30.10 in 7.0 miles Calm Calm - N/A   Overcast
5:15 AM 60.8 °F 60.8 °F 100% 30.09 in 7.0 miles Calm Calm - N/A   Overcast
5:35 AM 60.8 °F 60.8 °F 100% 30.10 in 7.0 miles Calm Calm - N/A   Overcast
6:15 AM 60.8 °F 60.8 °F 100% 30.11 in 7.0 miles Calm Calm - N/A   Overcast
6:35 AM 62.6 °F 60.8 °F 94% 30.11 in 7.0 miles Calm Calm - N/A   Overcast
7:15 AM 62.6 °F 60.8 °F 94% 30.13 in 10.0 miles NNE 3.5 mph - N/A   Overcast
7:35 AM 62.6 °F 60.8 °F 94% 30.13 in 7.0 miles NNE 4.6 mph - N/A   Overcast
7:55 AM 62.6 °F 60.8 °F 94% 30.14 in 7.0 miles NNE 4.6 mph - N/A   Overcast
8:15 AM 62.6 °F 60.8 °F 94% 30.14 in 7.0 miles NE 8.1 mph - N/A   Overcast
8:35 AM 62.6 °F 60.8 °F 94% 30.14 in 5.0 miles NE 9.2 mph - N/A   Light Drizzle
9:15 AM 62.6 °F 60.8 °F 94% 30.14 in 7.0 miles ENE 10.4 mph - N/A   Overcast
9:35 AM 62.6 °F 60.8 °F 94% 30.14 in 10.0 miles ENE 10.4 mph 23.0 mph N/A   Overcast
10:15 AM 66.2 °F 60.8 °F 83% 30.14 in 10.0 miles ENE 8.1 mph - N/A   Overcast
10:35 AM 68.0 °F 59.0 °F 73% 30.14 in 10.0 miles NE 8.1 mph - N/A   Overcast
10:55 AM 68.0 °F 59.0 °F 73% 30.14 in 10.0 miles NE 8.1 mph - N/A   Overcast
11:15 AM 69.8 °F 59.0 °F 68% 30.14 in 10.0 miles NE 6.9 mph - N/A   Scattered Clouds
11:35 AM 69.8 °F 59.0 °F 68% 30.13 in 10.0 miles NNE 6.9 mph - N/A   Clear
11:55 AM 71.6 °F 59.0 °F 64% 30.12 in 10.0 miles NE 4.6 mph - N/A   Clear
12:15 PM 71.6 °F 59.0 °F 64% 30.10 in 10.0 miles East 3.5 mph - N/A   Clear
12:35 PM 71.6 °F 59.0 °F 64% 30.09 in 10.0 miles Calm Calm - N/A   Clear
12:55 PM 71.6 °F 59.0 °F 64% 30.08 in 10.0 miles Calm Calm - N/A   Clear
1:15 PM 73.4 °F 59.0 °F 61% 30.07 in 10.0 miles Calm Calm - N/A   Clear
1:35 PM 73.4 °F 59.0 °F 61% 30.07 in 10.0 miles West 3.5 mph - N/A   Clear
1:55 PM 73.4 °F 59.0 °F 61% 30.06 in 10.0 miles NW 3.5 mph - N/A   Clear
2:15 PM 75.2 °F 59.0 °F 57% 30.06 in 10.0 miles SSW 3.5 mph - N/A   Clear
2:35 PM 75.2 °F 59.0 °F 57% 30.05 in 10.0 miles South 4.6 mph - N/A   Clear
2:55 PM 75.2 °F 59.0 °F 57% 30.05 in 10.0 miles WSW 3.5 mph - N/A   Clear
3:15 PM 73.4 °F 59.0 °F 61% 30.04 in 10.0 miles West 3.5 mph - N/A   Clear
3:35 PM 73.4 °F 59.0 °F 61% 30.04 in 10.0 miles West 5.8 mph - N/A   Clear
3:55 PM 73.4 °F 59.0 °F 61% 30.04 in 10.0 miles WNW 5.8 mph - N/A   Clear
4:15 PM 73.4 °F 59.0 °F 61% 30.05 in 10.0 miles WNW 4.6 mph - N/A   Scattered Clouds
4:35 PM 73.4 °F 59.0 °F 61% 30.06 in 10.0 miles West 4.6 mph - N/A   Mostly Cloudy
4:55 PM 73.4 °F 59.0 °F 61% 30.06 in 10.0 miles West 9.2 mph - N/A   Mostly Cloudy
5:15 PM 69.8 °F 59.0 °F 68% 30.07 in 10.0 miles West 4.6 mph - N/A   Mostly Cloudy
5:35 PM 69.8 °F 59.0 °F 68% 30.07 in 10.0 miles Calm Calm - N/A   Scattered Clouds
5:55 PM 69.8 °F 57.2 °F 64% 30.07 in 10.0 miles NW 4.6 mph - N/A   Clear
6:15 PM 68.0 °F 59.0 °F 73% 30.07 in 10.0 miles West 4.6 mph - N/A   Clear
6:35 PM 68.0 °F 59.0 °F 73% 30.07 in 10.0 miles Calm Calm - N/A   Clear
6:55 PM 68.0 °F 57.2 °F 68% 30.08 in 10.0 miles Calm Calm - N/A   Clear
7:15 PM 66.2 °F 59.0 °F 78% 30.08 in 10.0 miles Calm Calm - N/A   Clear
7:35 PM 64.4 °F 57.2 °F 77% 30.09 in 10.0 miles Calm Calm - N/A   Clear
7:55 PM 64.4 °F 55.4 °F 73% 30.10 in 10.0 miles NNW 3.5 mph - N/A   Clear
8:15 PM 64.4 °F 55.4 °F 73% 30.10 in 10.0 miles Calm Calm - N/A   Clear
8:35 PM 64.4 °F 55.4 °F 73% 30.10 in 10.0 miles NNE 4.6 mph - N/A   Clear
8:55 PM 64.4 °F 53.6 °F 68% 30.11 in 10.0 miles NNE 5.8 mph - N/A   Clear
9:15 PM 64.4 °F 53.6 °F 68% 30.11 in 10.0 miles NNE 4.6 mph - N/A   Clear
9:35 PM 62.6 °F 53.6 °F 72% 30.11 in 10.0 miles NNE 5.8 mph - N/A   Clear
9:55 PM 62.6 °F 53.6 °F 72% 30.11 in 10.0 miles NNE 5.8 mph - N/A   Clear
10:15 PM 62.6 °F 53.6 °F 72% 30.11 in 10.0 miles NNE 6.9 mph - N/A   Clear
10:35 PM 60.8 °F 53.6 °F 77% 30.11 in 10.0 miles NE 6.9 mph - N/A   Clear
10:55 PM 60.8 °F 53.6 °F 77% 30.11 in 10.0 miles NE 5.8 mph - N/A   Clear
11:15 PM 60.8 °F 51.8 °F 72% 30.09 in 10.0 miles NE 5.8 mph - N/A   Clear
11:55 PM 60.8 °F 51.8 °F 72% 30.09 in 10.0 miles NE 5.8 mph - N/A   Clear
ADVERTISEMENT
Enter city or zip code to search weather conditions:

My favorites Edit

Mostly Cloudy
59°
Mostly Cloudy

Overcast
54°
Overcast

Mostly Cloudy
65°
Mostly Cloudy


  • 490 First Avenue South
  • St. Petersburg, FL 33701
  • 727-893-8111